Miscellaneous Local Product
Issued by NWS Hastings, NE

Home | Current Version | Previous Version | Graphics & Text | Print | Product List | Glossary On
Versions: 1 2 3 4 5 6 7 8 9 10 11 12 13 14 15 16 17 18 19 20 21 22 23 24 25 26 27 28 29 30 31 32 33 34 35 36 37 38 39 40 41 42 43 44 45 46 47 48 49 50
000
AXUS43 KGID 271302
MISGRI

GID CWA HOURLY WEATHER ROUNDUP
NATIONAL WEATHER SERVICE HASTINGS NE
700 AM CST THU NOV 27 2014

NOTE: "FAIR" INDICATES FEW OR NO CLOUDS BELOW 12,000 FEET WITH NO
SIGNIFICANT WEATHER AND/OR OBSTRUCTIONS TO VISIBILITY.

...SOUTH CENTRAL NEBRASKA...

CITY           SKY/WX    TMP DP  RH WIND       PRES   REMARKS
GRAND ISLAND   CLEAR     16  11  80 SE3       30.44S
HASTINGS       PTCLDY    18  12  77 S3        30.42S
KEARNEY        PTCLDY    18  12  79 E5        30.42R WCI  11
ORD            CLOUDY    18  12  77 E8        30.40R WCI   8
YORK           CLOUDY    18  10  73 E7        30.46S WCI   8
AURORA         MOCLDY    18  10  72 SE3       30.45R
LEXINGTON      PTCLDY    20  16  86 S10       30.34F WCI   9
HOLDREGE       PTCLDY    18  15  86 S6        30.38F WCI  10
HEBRON         CLOUDY    19  12  76 CALM      30.49R

...NEBRASKA PANHANDLE...

CITY           SKY/WX    TMP DP  RH WIND       PRES   REMARKS
CHADRON        PTCLDY   N/A N/A N/A W3        30.13F
ALLIANCE       PTCLDY    16  14  92 SE5       30.14F WCI   9
SCOTTSBLUFF    CLOUDY    12  10  92 VRB3      30.15F
SIDNEY         PTCLDY    23  19  85 SW14      30.17F WCI  11

...WESTERN AND NORTH CENTRAL NEBRASKA...

CITY           SKY/WX    TMP DP  RH WIND       PRES   REMARKS
VALENTINE      MOCLDY    21  16  81 E10       30.26F WCI  10
AINSWORTH      CLOUDY    20  15  81 SE15      30.29F WCI   6
ONEILL         CLOUDY    16   8  70 SE6       30.40F WCI   8
BROKEN BOW     PTCLDY    20  15  81 SE8       30.34F WCI  10
IMPERIAL       CLEAR     21  17  84 S8        30.24F WCI  11
NORTH PLATTE   CLEAR     18  15  88 SE6       30.28F WCI  10
MCCOOK         CLEAR     19  16  88 E8        30.33R WCI   9

...EASTERN NEBRASKA...

CITY           SKY/WX    TMP DP  RH WIND       PRES   REMARKS
NORFOLK        CLOUDY    16   8  71 E3        30.46R
SO SIOUX CITY  CLOUDY     9  -6  50 N6        30.53R WCI  -1
TEKAMAH        CLEAR     11   2  67 NE9       30.52S WCI  -2
COLUMBUS       CLOUDY    18   7  62 E7        30.49R WCI   8
ALBION         CLOUDY    17   9  68 E3        30.44S
OMAHA EPPLEY   PTCLDY    16  11  80 N8        30.52R WCI   5
OFFUTT AFB     CLOUDY    17  11  75 N8        30.50S WCI   7
MILLARD        MOCLDY    18  11  76 CALM      30.50R
LINCOLN        CLOUDY    17  10  74 CALM      30.51R
NEBRASKA CITY  CLOUDY    17  12  80 E5        30.48S WCI  10
BEATRICE       CLOUDY    15  11  83 CALM      30.48R
FALLS CITY     CLOUDY    20  15  81 NE6       30.51R WCI  12

...NORTHERN KANSAS...

CITY           SKY/WX    TMP DP  RH WIND       PRES   REMARKS
GOODLAND       CLEAR     23  17  78 S12       30.27F WCI  12
HILL CITY      PTCLDY    23  16  74 S6        30.38F WCI  16
NORTON         SUNNY     19  14  79 E6        30.38R WCI  11
PHILLIPSBURG   CLEAR     21  18  86 E7        30.44S WCI  13
SMITH CENTER   CLEAR     16  12  86 E6        30.46F WCI   7
BELOIT         CLEAR     16  12  86 NE3       30.50R
HAYS           PTCLDY    19   9  63 S9        30.42F WCI   9
RUSSELL        PTCLDY    19  16  88 S10       30.41F WCI   7
CONCORDIA      CLEAR     15  12  88 CALM      30.50R
SALINA         PTCLDY    19  13  77 S3        30.50F
TOPEKA         CLOUDY    25  19  78 N7        30.53R WCI  17



USA.gov is the U.S. government's official web portal to all federal, state and local government web resources and services.